Simultaneous Nadir Overpasses (SNOs) Predictions

Prediction of SNOs between AQUA and METOP-B Satellite Orbit:

Table of predicted SNOs for the next 14.0 days since TLE Epoch: 8/9/2013
Index Date (AQUA) Time (AQUA) Lat,Lon (AQUA) SZA (AQUA ) Date (METOP-B) Time (METOP-B) Lat,Lon (METOP-B) SZA (METOP-B ) Distance(km) Time Diff (sec)
1 08/09/2013 22:12:50 73.69,-158.63 58.13 08/09/2013 22:11:43 73.68,-158.65 58.14 0.94 67
2 08/09/2013 23:02:17 -73.78, 8.83 121.77 08/09/2013 23:02:24 -73.76, 8.85 121.79 2.03 7
3 08/09/2013 23:51:48 73.95, 176.08 58.43 08/09/2013 23:52:59 73.96, 176.67 58.41 18.26 71
4 08/12/2013 17:47:05 73.68, -92.18 58.96 08/12/2013 17:46:06 73.70, -92.22 58.98 1.66 59
5 08/12/2013 18:36:32 -73.76, 75.29 120.95 08/12/2013 18:36:47 -73.77, 75.29 120.94 1.08 15
6 08/12/2013 19:26:09 74.25,-118.18 59.59 08/12/2013 19:27:17 74.22,-116.28 59.48 57.50 68
7 08/15/2013 13:21:19 73.70, -25.78 59.84 08/15/2013 13:20:28 73.71, -25.79 59.86 1.18 51
8 08/15/2013 14:10:46 -73.77, 141.71 120.08 08/15/2013 14:11:09 -73.79, 141.73 120.06 2.04 23
9 08/18/2013 08:55:34 73.73, 40.59 60.76 08/18/2013 08:54:51 73.72, 40.65 60.76 2.00 43
10 08/18/2013 09:45:01 -73.80,-151.91 119.16 08/18/2013 09:45:32 -73.80,-151.84 119.16 2.47 31
11 08/21/2013 04:29:48 73.73, 107.03 61.68 08/21/2013 04:29:14 73.73, 107.08 61.69 1.58 34
12 08/21/2013 05:19:15 -73.79, -85.46 118.25 08/21/2013 05:19:56 -73.77, -85.51 118.27 3.03 41




NCC Satellite Simultaneous Nadir Overpasses (SNOs) Prediction Service
